Theta_e
317 317 317 317 317 316 315 314 313 310 309 310 309 308 309 310 311 311 312 313 313 314 313 313 314 314 315 316 317 317 317 321 327 331 331 327 324 323 320 319 317 316 316 321 330 335 335 331 328 327 328 329 332 337 340 339 339 339 346 348 341 343 351 353 358 357 354 356 357 361 361 362 363 357 353 351 347 349 345 343 344 345 346 347 349 349 349 348
316 316 316 317 316 316 315 315 313 311 310 309 309 309 309 309 310 311 312 312 313 314 314 313 314 313 314 316 317 317 320 326 330 332 333 330 326 325 319 316 315 314 317 328 335 334 331 327 327 327 326 327 331 337 338 338 336 337 344 342 341 348 352 352 357 356 354 354 358 362 361 362 361 356 354 356 354 350 349 347 345 347 348 348 348 349 348 348
315 315 315 315 315 315 315 314 313 311 310 309 309 309 309 309 309 311 311 312 313 313 314 313 313 313 312 316 318 319 324 330 334 334 332 328 323 321 317 314 314 314 319 331 335 332 329 325 325 325 325 327 331 337 337 336 335 337 342 339 342 349 352 355 358 359 357 354 360 362 361 360 358 356 356 360 358 354 353 351 348 348 347 347 347 347 349 348
315 314 313 313 314 314 314 314 313 312 310 309 309 309 309 309 310 310 310 311 312 313 313 312 312 311 311 316 318 321 327 334 334 332 326 321 317 315 313 313 315 316 321 330 333 331 326 323 325 323 325 327 329 336 336 335 334 335 338 340 342 346 353 359 358 361 359 357 363 362 361 361 357 357 356 360 360 354 352 351 352 351 346 347 346 346 348 348
315 314 313 313 312 313 313 314 314 312 310 309 309 309 309 309 309 310 310 311 312 313 313 312 311 311 311 315 318 323 330 335 333 329 323 322 316 313 313 314 315 320 326 330 331 329 323 323 323 323 324 326 329 333 335 334 333 334 337 341 342 343 353 358 356 359 360 359 362 362 362 360 357 358 357 357 356 351 348 348 351 351 347 346 346 346 347 346
318 316 314 313 312 312 312 313 314 313 311 309 309 309 309 309 309 310 310 311 312 312 312 312 310 310 311 314 320 325 331 334 335 329 324 323 318 315 313 314 316 322 329 331 330 325 322 323 322 323 324 325 328 332 334 333 331 333 336 340 342 343 350 354 354 357 361 361 361 361 361 358 357 359 359 358 355 349 346 346 348 348 347 346 347 346 346 346
320 318 316 314 312 311 311 313 314 314 312 310 309 309 309 309 309 310 310 310 311 311 312 311 310 310 311 317 325 329 333 334 335 328 323 322 320 317 313 316 319 322 327 329 327 323 322 324 323 325 324 325 328 330 332 332 331 332 335 341 345 345 345 350 354 356 359 360 360 359 358 358 359 358 359 360 356 350 346 346 347 346 347 347 346 346 346 345
321 320 318 315 312 310 311 312 313 314 313 311 310 309 309 309 310 310 310 311 311 311 312 311 311 310 312 321 330 333 335 335 331 323 320 322 322 318 316 320 322 322 325 324 324 322 322 323 322 324 324 326 328 329 331 329 330 330 336 346 349 348 348 351 357 358 358 360 359 359 358 359 357 356 359 359 355 354 350 347 346 345 346 346 345 346 346 345
321 321 319 316 312 310 310 311 313 314 314 312 310 309 309 310 310 310 311 311 311 312 312 311 311 310 315 324 330 331 334 333 328 321 319 323 323 321 321 324 323 323 323 323 323 322 321 322 322 323 324 326 328 330 328 328 331 331 340 348 350 350 353 355 360 362 362 362 360 361 361 358 356 356 359 359 353 354 351 348 348 346 349 347 346 346 345 345
318 319 318 316 313 310 310 310 312 314 314 312 310 310 310 310 312 314 315 314 314 313 312 312 311 311 319 328 333 333 333 331 328 323 321 324 326 325 324 326 325 323 324 324 323 322 322 321 322 324 326 327 328 328 326 327 328 333 343 347 348 350 355 359 362 363 362 363 362 362 363 360 361 359 358 359 355 352 350 350 349 350 356 352 346 348 345 345
314 316 316 314 312 311 310 310 312 314 314 312 310 310 311 314 319 320 321 321 319 317 314 313 311 314 323 330 332 333 330 331 331 326 325 325 326 328 327 327 327 325 324 325 324 322 322 322 323 326 327 326 325 325 325 326 325 330 340 345 348 348 354 360 363 362 361 362 361 363 363 361 365 361 357 357 354 352 350 351 350 350 355 351 349 352 346 345
311 312 313 312 311 311 310 310 311 314 314 312 310 311 313 319 322 322 323 323 322 320 316 313 312 318 327 331 330 330 327 331 330 327 327 324 326 328 327 327 326 325 324 325 323 321 321 322 326 326 328 325 324 324 323 326 326 326 334 346 350 349 352 358 363 362 361 362 360 362 357 356 366 361 356 355 351 352 350 351 352 350 352 349 350 352 345 346
309 309 309 309 310 309 309 310 311 314 315 312 310 311 316 321 321 321 323 323 321 319 316 315 315 322 329 332 330 327 325 329 328 327 326 324 325 324 324 324 324 324 324 324 322 321 321 323 326 326 326 324 323 324 323 325 326 325 328 340 346 344 347 356 359 359 362 363 363 359 344 345 360 358 358 360 355 356 352 350 352 351 351 348 348 348 345 348
307 307 307 307 308 308 309 309 311 314 315 312 311 313 318 322 321 321 324 323 321 319 317 316 319 327 333 333 327 325 326 328 326 326 326 325 325 322 321 322 322 323 324 323 323 323 323 324 325 323 323 324 324 324 324 323 324 327 328 334 342 336 338 353 354 352 359 360 366 359 340 342 356 355 359 365 362 359 352 350 351 351 350 347 348 347 345 348
307 307 307 307 307 307 308 309 311 313 315 312 311 314 319 322 321 321 322 322 321 319 318 320 323 329 336 333 328 323 324 328 326 326 326 325 324 322 321 320 321 322 322 322 322 324 324 323 323 322 322 323 323 322 323 323 324 328 325 324 335 332 334 352 353 348 353 357 365 359 341 342 352 352 357 364 363 359 353 351 350 350 350 348 348 348 345 347
308 308 308 308 308 307 308 309 311 313 315 312 311 315 319 321 321 320 321 321 322 321 322 328 331 332 334 330 327 323 323 327 327 326 325 324 324 324 322 320 320 321 321 321 321 323 324 323 322 322 322 322 322 322 321 318 320 327 325 318 325 330 331 343 350 351 352 352 359 358 346 344 349 351 358 365 362 359 356 351 350 352 353 350 348 348 347 347
308 308 308 308 308 308 308 308 310 313 315 312 311 316 319 322 322 321 322 323 323 324 325 332 336 335 336 329 323 324 326 327 326 326 325 324 325 325 323 321 321 320 320 321 322 323 322 322 322 321 322 322 322 323 317 310 312 320 324 320 323 332 330 332 344 352 351 351 355 357 353 348 349 352 358 364 362 358 356 352 352 354 353 351 348 347 348 349
308 308 309 309 309 309 308 308 309 313 315 312 312 317 323 324 322 322 326 329 328 328 329 331 333 332 332 329 324 326 327 325 324 325 324 324 325 325 322 322 322 321 321 322 323 323 322 322 322 321 322 320 322 321 313 310 314 314 317 319 320 328 329 329 340 348 351 353 353 352 350 349 350 350 354 358 360 359 356 353 352 354 352 350 352 353 351 351
308 308 309 309 309 309 309 309 309 312 314 312 313 322 330 329 325 325 330 334 333 333 333 332 332 330 327 326 326 325 325 324 324 324 324 324 324 324 323 323 323 321 321 322 324 323 323 323 321 319 319 320 323 321 317 318 321 319 319 320 319 322 326 334 341 346 351 348 347 346 341 345 352 352 353 354 357 358 355 354 353 355 352 354 362 363 355 351
308 308 309 309 310 310 310 310 310 312 314 312 316 326 336 336 333 332 332 333 333 332 330 328 330 329 326 326 326 324 324 323 324 324 324 324 324 324 323 323 323 322 322 323 324 324 323 322 320 319 320 322 323 322 324 323 323 324 322 320 321 320 323 338 345 345 349 340 338 341 334 345 356 353 355 354 353 355 353 354 355 355 353 358 362 361 353 353
308 308 309 309 310 310 310 311 310 313 313 312 316 326 334 330 329 330 328 330 331 330 328 328 328 327 327 327 326 325 324 323 324 324 325 324 323 325 323 322 322 321 322 323 324 325 323 319 320 323 323 323 324 324 324 323 323 323 320 318 318 318 323 339 347 344 348 340 335 339 332 342 356 354 355 356 354 355 354 355 357 357 356 357 357 356 353 355
308 309 309 309 310 310 311 312 312 314 313 314 319 327 330 326 325 326 326 326 328 329 328 328 327 326 327 327 326 325 324 324 325 324 325 323 322 325 324 322 322 323 323 322 322 322 320 318 321 324 324 324 324 323 323 322 323 321 320 317 313 318 324 333 346 349 350 341 334 338 334 339 357 357 355 357 355 356 357 359 360 359 359 357 355 355 355 356
308 308 309 309 310 310 311 313 314 313 312 318 325 328 327 326 324 325 326 325 328 329 327 325 325 325 325 326 325 324 324 326 325 324 324 322 323 325 323 323 322 323 323 322 321 317 314 318 325 324 323 324 322 322 322 321 321 320 318 313 310 318 318 320 338 350 350 343 335 337 334 339 358 358 356 357 355 357 358 358 359 358 359 358 354 354 355 356
308 309 309 309 309 310 312 313 315 316 317 321 324 324 324 325 324 325 326 326 328 329 327 325 325 325 325 326 325 324 324 326 325 325 324 322 324 324 322 324 323 323 324 323 323 319 317 322 325 324 323 323 322 322 322 319 317 319 319 315 313 318 317 318 336 346 344 343 342 340 330 332 349 353 355 356 352 355 357 356 357 356 358 357 354 352 354 355
309 309 309 310 310 311 312 315 319 321 323 324 323 324 324 324 325 326 327 328 326 328 328 325 325 326 326 326 325 324 324 325 325 325 325 323 324 324 323 324 323 323 324 324 323 321 322 324 324 324 323 323 322 321 322 319 314 315 320 321 318 320 321 321 332 335 324 324 339 340 324 324 339 349 352 353 351 353 355 355 355 356 356 354 355 353 354 356
309 309 309 311 312 310 313 321 322 319 322 323 323 324 323 323 326 325 328 326 321 326 328 324 325 326 326 327 324 324 324 325 325 325 325 324 324 325 323 323 323 323 324 324 323 322 323 324 323 323 322 323 323 321 323 323 314 311 318 324 323 323 323 320 322 321 311 317 339 343 327 323 331 345 352 351 351 352 353 355 354 355 355 353 354 353 353 356
309 310 310 312 314 312 314 320 319 318 323 324 324 323 321 323 326 326 329 322 318 325 328 324 325 325 324 325 325 325 322 322 325 325 325 324 324 325 323 324 324 322 324 323 318 319 324 325 323 324 323 323 323 321 324 324 315 313 322 328 327 324 323 323 322 319 316 325 339 344 335 325 326 341 353 351 352 353 353 354 354 354 355 353 353 352 353 354
310 311 312 314 315 312 313 316 318 322 323 323 324 323 321 323 324 328 328 319 321 326 328 325 325 325 325 325 325 325 323 323 324 323 324 324 323 324 323 324 324 324 326 321 314 319 325 325 323 324 323 322 322 322 324 324 319 321 328 329 328 328 328 327 324 321 322 326 326 334 336 325 325 340 352 353 351 351 352 354 355 354 354 353 352 353 354 353
311 312 314 316 314 314 318 320 321 323 322 325 325 322 322 322 324 328 324 320 325 327 328 326 325 325 325 325 324 325 325 324 324 324 325 324 323 324 323 324 324 323 324 322 318 322 325 323 324 324 322 322 324 326 326 325 323 325 328 327 329 330 329 330 328 323 323 323 320 325 327 322 325 335 343 347 347 348 351 352 353 353 352 354 355 356 355 353
312 313 314 315 315 316 321 322 322 323 324 325 323 322 322 321 323 322 317 320 325 326 327 325 325 325 324 325 324 324 325 324 325 324 324 324 323 324 323 324 324 323 325 324 322 323 325 323 324 323 323 324 325 326 326 325 325 326 327 327 328 329 331 331 328 325 322 321 320 322 325 324 324 329 337 344 346 348 351 349 351 353 352 354 357 357 353 352
313 315 314 314 314 314 317 321 322 324 327 325 322 323 321 322 324 317 316 325 324 325 326 324 326 325 324 324 323 323 324 324 324 324 324 324 323 323 323 323 323 323 323 322 323 325 325 324 324 323 323 324 324 324 325 327 326 326 326 326 322 323 325 322 324 328 324 321 320 323 328 324 319 325 339 348 349 352 357 355 351 351 351 351 354 357 354 351
314 316 316 315 313 313 314 318 320 323 326 324 322 323 321 321 319 314 320 325 319 321 326 325 325 325 324 324 324 324 324 324 324 324 324 323 323 324 324 323 323 318 314 315 320 322 324 324 324 324 324 324 323 321 323 326 326 326 324 320 316 316 317 317 322 328 323 319 321 325 329 322 319 330 345 351 350 358 369 365 351 349 351 349 350 352 352 351
315 317 317 314 314 314 314 317 321 324 327 324 321 323 322 317 315 315 319 321 318 322 327 326 325 326 324 323 323 325 324 324 325 324 324 324 324 325 325 325 325 320 314 315 315 314 317 323 324 324 324 323 323 319 317 320 324 325 320 314 313 314 315 316 318 319 318 317 320 328 327 319 322 338 349 350 348 355 364 360 353 350 352 352 351 349 348 351
316 317 316 316 317 317 317 321 326 327 326 323 321 323 321 315 317 319 320 322 323 326 328 326 326 325 324 323 323 325 323 323 325 325 324 324 322 322 324 325 326 324 321 317 314 312 311 314 321 324 322 322 323 322 321 322 323 324 324 321 314 312 313 314 314 314 316 315 317 323 323 318 325 340 349 349 349 351 353 354 357 354 352 352 352 351 351 351
316 317 318 322 323 323 323 324 327 327 325 323 322 321 317 313 316 318 320 325 327 328 328 327 327 323 322 324 324 325 324 322 324 325 324 323 321 321 323 325 325 327 323 315 314 316 310 312 322 326 323 324 323 324 326 324 320 323 327 321 314 314 316 312 311 313 313 312 314 318 320 325 335 343 345 347 348 349 350 351 356 357 356 353 350 352 353 353
317 319 320 324 327 329 329 327 327 327 324 323 321 317 317 318 320 320 323 327 328 329 328 324 324 320 316 321 323 326 325 322 324 324 323 323 323 323 325 325 326 326 323 318 317 317 311 313 325 327 324 326 325 324 326 322 318 321 321 316 317 324 320 311 310 313 312 312 314 315 317 325 337 342 344 346 348 349 348 347 352 357 358 356 352 351 353 353
318 321 322 325 328 330 330 327 327 325 322 322 320 318 321 323 324 323 325 328 327 331 327 318 319 319 313 315 320 324 324 322 323 321 319 321 321 322 325 325 326 326 326 323 320 321 316 314 324 328 324 326 326 325 326 325 324 319 315 317 323 327 322 315 312 312 314 314 314 314 313 316 326 336 344 346 348 350 349 348 351 356 357 356 353 352 353 354
319 323 325 327 328 326 327 327 326 323 321 321 321 323 325 324 325 324 326 327 326 330 327 317 319 322 317 314 317 325 324 319 321 320 317 319 319 322 326 326 325 325 326 325 322 325 321 313 319 328 326 325 327 324 321 324 327 322 320 323 323 316 315 316 313 313 315 315 314 313 312 316 325 334 341 342 346 350 351 352 352 353 356 357 354 352 352 352
322 327 329 329 325 323 326 326 324 323 320 320 320 323 324 323 325 325 325 327 326 328 327 322 322 323 322 319 319 325 325 318 321 320 317 318 318 321 325 325 325 325 325 326 324 326 325 315 314 325 328 326 325 322 316 318 325 326 326 327 324 317 315 315 314 314 313 313 315 313 313 322 333 339 341 343 348 349 349 352 354 354 357 357 357 355 353 353
324 326 328 328 325 324 325 325 324 323 321 320 320 321 322 322 323 324 324 326 325 326 326 325 324 322 323 325 322 324 326 323 323 320 318 321 320 320 324 325 325 326 325 326 325 325 326 319 312 320 327 323 320 322 320 320 323 323 321 320 320 320 319 319 317 315 313 313 314 314 315 327 341 347 346 347 348 348 349 351 353 355 358 357 357 357 357 357
323 324 326 325 324 323 322 322 323 323 322 322 321 320 322 322 323 324 325 325 323 324 325 324 325 324 324 325 324 325 325 325 324 322 321 323 320 319 324 325 325 325 325 325 326 324 324 320 314 315 318 316 319 326 327 325 326 324 321 319 320 319 318 317 317 316 314 313 314 314 318 331 347 350 350 351 349 349 350 349 348 353 358 357 357 357 357 358
327 329 326 324 324 322 320 320 322 323 322 323 322 321 322 323 324 324 325 325 324 323 323 323 324 326 327 327 325 326 325 323 323 323 321 323 323 323 325 326 325 325 325 324 326 326 326 323 316 313 317 320 325 328 326 326 328 326 324 323 323 321 316 313 314 316 315 314 316 314 317 333 349 349 350 353 351 350 350 347 347 352 356 356 356 357 357 358
328 328 325 325 324 321 320 322 324 324 323 323 323 322 322 323 323 324 325 325 324 323 322 323 323 324 326 326 326 327 326 323 324 324 323 324 325 324 325 326 325 326 326 324 325 327 326 323 317 313 319 324 327 327 327 328 328 325 324 325 324 323 322 319 319 319 316 315 316 314 316 331 346 347 351 354 352 352 353 350 348 350 353 354 354 356 357 358
323 324 324 326 325 321 321 322 325 326 325 324 323 322 323 323 323 324 324 324 324 323 322 323 323 323 324 325 325 326 324 321 321 324 325 325 325 326 325 325 324 325 324 324 326 324 322 322 318 314 316 319 321 323 324 327 328 325 325 328 328 327 327 325 322 322 318 314 315 315 316 327 342 345 348 352 352 351 352 353 351 350 351 353 354 355 356 356
323 325 327 326 325 322 321 322 324 326 327 327 327 325 324 324 323 324 323 323 324 323 323 323 323 323 324 324 324 325 325 322 321 325 326 324 326 326 325 326 326 324 325 332 334 325 322 325 322 315 314 316 316 317 318 321 324 324 326 327 328 327 326 323 320 317 317 317 319 318 318 325 340 345 343 346 350 350 351 352 351 350 351 352 354 354 355 355
324 329 330 328 326 324 323 323 323 324 326 329 330 328 326 325 326 325 324 324 324 323 324 325 324 324 324 323 324 324 326 324 324 325 325 325 326 325 326 327 323 326 337 340 335 328 325 326 325 320 317 317 317 318 324 325 320 319 322 324 326 328 329 326 319 316 318 320 320 323 326 325 331 340 340 340 347 350 348 347 350 352 351 352 354 353 354 355
327 332 329 326 328 327 326 324 324 324 325 327 328 328 328 328 328 327 325 326 325 324 324 324 325 325 324 324 324 324 325 327 326 325 325 326 326 325 327 325 323 341 354 339 326 328 325 321 324 324 321 322 324 324 326 326 321 319 321 322 324 328 328 324 319 319 325 321 317 326 332 324 326 337 338 336 343 347 346 347 351 353 352 351 352 352 353 353
330 331 327 327 328 328 328 327 327 328 327 327 327 327 327 328 329 327 327 326 326 325 325 324 324 324 324 325 324 324 325 325 325 326 325 326 326 325 326 324 325 341 347 329 322 329 324 318 323 324 321 325 327 327 327 326 324 323 323 323 324 326 326 323 321 324 327 321 319 327 330 327 330 336 337 337 340 342 345 349 349 349 351 350 349 350 351 352
329 327 326 327 327 326 326 325 326 328 329 329 329 328 328 328 328 328 327 327 327 326 325 325 325 324 324 325 324 326 326 322 321 327 329 326 326 325 325 325 325 329 330 323 325 329 323 320 326 325 321 324 327 327 328 326 324 323 323 324 326 327 327 326 325 327 327 324 326 330 329 330 334 336 337 339 340 341 344 345 345 347 351 350 348 347 347 351
327 326 324 324 324 325 324 324 325 325 327 329 328 328 328 327 327 327 327 327 328 328 326 326 326 325 324 325 324 325 326 325 325 329 331 330 329 327 325 325 325 325 326 325 326 327 322 321 328 327 319 320 326 328 327 326 324 322 323 326 327 325 326 327 327 328 327 325 328 331 328 330 336 337 336 338 340 341 341 342 344 348 350 349 348 347 346 349
325 323 324 323 324 325 324 325 326 324 324 326 327 328 328 328 327 327 327 327 327 328 328 327 327 326 325 328 328 326 327 329 329 330 331 330 329 328 328 327 326 326 326 326 327 328 325 323 327 326 317 317 324 326 325 326 324 320 320 325 326 324 324 326 328 329 327 326 328 326 324 328 334 336 336 338 339 339 341 344 345 346 346 347 347 345 345 348
324 322 323 324 326 327 325 325 325 325 325 324 325 327 327 328 328 327 327 328 326 327 327 327 329 329 329 330 331 331 331 331 331 330 330 330 329 329 328 328 327 326 327 327 328 328 328 326 324 323 319 319 324 325 323 323 320 317 320 325 327 327 327 326 328 330 330 329 327 324 325 331 335 335 335 337 338 340 346 349 347 345 346 345 345 345 346 348
Wind_Speed
17 17 17 17 17 16 16 15 14 14 12 11 10 10 10 10 10 10 10 11 12 13 13 14 15 17 17 17 16 16 18 14 10 10 11 11 9 9 7 6 7 9 8 9 12 11 11 11 11 12 10 9 8 6 8 7 6 4 3 1 2 1 2 3 3 4 3 2 2 1 4 4 7 9 8 6 10 12 6 8 7 10 10 14 17 21 23 21
19 19 19 18 18 17 17 16 15 14 13 11 10 10 10 10 10 10 11 12 13 14 14 15 16 17 18 17 16 15 17 13 13 14 12 12 10 12 13 11 9 8 9 12 13 11 10 10 9 8 7 8 6 6 7 4 4 3 0 2 1 3 3 3 4 4 3 2 3 3 5 6 7 7 6 4 7 11 7 7 6 12 13 15 18 20 21 20
20 20 20 20 20 19 18 17 16 15 14 12 11 11 11 11 12 12 12 13 14 14 14 15 16 17 17 17 16 13 14 13 13 9 7 9 9 11 12 11 10 9 13 15 12 10 11 12 11 8 7 8 6 6 6 3 3 1 0 3 3 8 7 3 4 4 3 3 4 3 7 7 4 3 4 2 3 8 3 3 4 10 12 13 15 17 19 19
21 21 21 21 21 21 19 18 17 15 14 13 12 12 13 13 13 13 14 14 15 15 15 16 16 17 17 16 14 11 10 11 5 3 4 2 5 7 8 7 8 10 14 15 14 14 12 12 11 10 8 8 8 6 7 5 2 1 3 1 3 6 8 4 3 4 5 5 4 4 7 4 1 1 2 2 2 4 2 1 2 3 9 13 14 15 17 16
21 21 22 22 22 22 21 20 18 16 13 12 13 13 13 14 14 14 15 15 15 15 15 16 17 17 17 16 11 8 8 5 3 7 5 2 1 4 6 6 9 11 12 14 15 14 12 12 10 10 8 7 9 6 7 7 1 3 2 6 4 4 8 6 3 5 5 3 5 5 5 3 1 2 5 8 4 2 3 3 3 3 4 12 13 13 15 14
22 22 22 22 23 23 22 21 19 16 14 12 12 12 13 14 15 15 15 16 16 15 16 16 17 17 16 15 9 5 7 2 6 6 5 3 1 2 5 7 10 11 11 13 14 13 11 10 9 9 7 8 10 6 6 4 2 5 1 8 4 5 8 7 3 5 8 2 1 4 5 5 3 5 6 8 3 2 3 4 7 6 6 9 12 12 13 14
22 22 23 23 23 24 23 22 20 18 15 13 12 12 13 14 15 15 16 16 16 15 16 16 16 16 15 12 7 4 9 2 6 5 4 4 3 3 5 8 10 10 10 13 12 11 10 10 10 9 8 9 10 8 6 1 3 7 0 9 7 8 8 6 6 4 6 5 6 5 5 6 5 4 5 6 3 3 4 2 8 8 7 7 12 12 13 14
21 22 23 24 24 25 24 23 22 19 16 14 13 13 14 14 15 15 16 16 15 15 15 16 15 14 13 9 6 7 8 2 8 4 2 5 5 5 7 8 10 10 11 13 11 10 9 10 11 9 9 9 7 8 6 2 4 11 2 12 10 9 9 7 8 7 5 1 5 5 4 3 6 6 6 5 3 4 3 2 6 9 8 9 11 11 12 13
21 22 23 24 24 25 25 25 23 21 18 16 14 14 14 14 15 15 16 16 15 15 14 15 14 11 10 7 7 7 0 7 8 3 4 7 7 7 8 8 10 11 12 12 11 11 8 9 10 8 10 10 10 9 8 5 3 4 6 14 10 8 8 7 7 6 3 3 4 3 2 4 10 11 6 5 5 3 0 4 5 5 6 10 10 10 11 12
22 22 23 24 25 25 26 26 25 23 19 17 15 14 15 15 16 15 14 14 13 13 13 14 11 8 7 6 9 5 6 8 7 6 6 8 8 8 9 10 10 10 12 11 10 11 10 10 10 8 9 9 9 8 7 8 4 6 8 11 8 6 6 5 4 0 2 5 5 1 4 7 8 7 3 4 5 3 2 3 7 2 3 8 4 7 10 11
23 23 24 24 25 26 26 27 26 25 20 17 15 14 15 15 14 13 11 10 9 9 10 11 8 5 6 8 8 3 4 4 5 8 6 7 8 8 9 10 10 10 11 10 9 10 12 12 10 8 5 5 7 9 7 8 8 2 7 9 7 3 5 6 2 3 2 3 4 2 4 7 5 4 2 7 7 7 6 6 6 3 6 9 6 7 9 9
24 24 25 25 26 26 27 27 27 26 21 17 15 14 15 15 13 13 10 7 5 6 7 7 5 3 6 9 7 2 1 3 3 5 6 7 8 8 8 9 9 10 11 10 8 9 12 11 9 8 7 6 7 6 6 7 9 6 3 6 7 4 4 7 4 3 2 2 2 2 6 5 6 4 3 8 8 7 8 9 7 6 12 12 10 10 9 8
25 25 26 26 26 27 27 27 27 26 22 17 14 14 14 13 13 13 8 3 3 4 6 4 2 2 6 7 2 1 1 3 4 4 5 7 8 7 7 9 9 10 11 11 9 8 10 9 10 11 10 9 9 6 9 9 8 9 8 3 4 4 4 8 5 3 4 3 2 2 4 2 6 6 5 7 6 4 7 10 12 11 12 9 8 8 8 9
26 26 27 27 27 27 27 27 28 27 23 16 13 13 13 11 12 12 5 3 2 4 4 2 0 1 6 5 2 3 4 2 5 6 7 7 7 6 5 7 9 10 10 10 11 8 6 8 11 11 10 11 11 9 10 9 7 7 7 2 2 5 2 7 6 5 5 3 3 4 3 2 4 7 7 7 6 7 6 8 13 12 10 9 8 7 8 10
26 27 27 27 27 27 27 27 28 28 23 16 12 13 12 10 10 8 3 2 3 3 3 3 4 4 7 6 3 4 5 6 7 8 7 7 8 6 5 5 8 9 8 9 10 7 6 9 10 8 9 11 11 10 9 8 6 7 6 3 4 4 1 4 5 5 3 2 5 6 4 3 3 6 7 7 7 8 6 6 12 11 10 11 9 8 8 10
26 27 27 28 28 28 27 27 28 28 24 16 12 12 11 9 8 6 3 2 3 2 2 4 7 9 7 2 6 7 7 8 8 9 8 8 10 7 6 4 6 8 8 9 9 7 7 9 8 8 10 11 10 9 7 8 7 7 6 3 2 3 1 2 5 6 3 2 6 6 4 6 2 4 7 8 7 7 7 5 10 11 10 10 8 9 8 10
27 28 28 29 29 28 28 27 27 28 23 15 13 12 10 9 6 5 5 4 4 3 5 8 7 9 7 2 6 7 7 7 6 8 8 8 10 3 5 5 5 7 8 9 10 7 8 8 6 7 8 8 8 7 7 8 6 4 6 4 3 5 4 3 5 6 5 5 6 7 7 8 3 4 7 8 6 7 7 5 7 10 9 10 9 9 9 10
27 28 29 29 30 29 28 28 27 28 23 15 13 12 11 9 7 7 7 5 3 5 8 11 10 6 5 6 5 5 6 6 5 7 7 7 7 4 6 7 5 7 7 8 9 9 7 7 6 6 7 7 7 7 8 9 7 4 1 1 3 2 2 2 4 7 8 7 8 8 8 8 4 5 4 4 5 6 7 6 4 9 10 10 8 6 8 9
28 29 29 30 30 30 29 28 28 28 22 14 12 13 11 8 6 7 9 6 4 6 5 4 9 4 1 7 3 3 4 3 5 6 6 6 5 6 9 8 6 7 7 6 8 9 7 6 7 7 7 7 8 9 10 13 13 11 7 2 2 3 3 4 5 8 9 7 8 9 9 4 6 8 3 3 6 6 8 9 5 6 9 7 4 2 6 10
29 29 30 30 30 30 29 28 28 27 20 13 11 11 9 4 3 3 7 10 9 11 10 4 12 9 3 6 5 5 4 3 6 6 8 7 6 8 8 7 7 7 8 8 8 9 7 7 7 7 8 9 11 12 12 13 14 12 9 5 4 7 6 9 10 9 8 5 6 9 9 2 11 11 7 4 4 4 6 8 6 7 7 5 6 6 6 8
29 30 30 31 31 31 30 28 28 24 16 12 9 7 6 6 3 2 1 9 13 16 16 11 11 9 6 2 5 5 5 6 7 7 8 8 7 8 7 7 8 7 8 9 8 7 6 7 8 10 13 11 8 7 9 10 11 10 9 6 5 7 3 7 10 9 8 3 6 9 10 2 11 10 7 4 1 3 5 7 8 9 4 8 8 8 6 6
30 30 31 32 31 32 30 29 27 20 12 10 7 9 7 9 6 7 7 8 11 15 16 12 10 7 5 4 2 4 7 8 8 8 9 8 9 8 6 8 8 8 8 7 7 5 6 9 10 10 8 6 8 8 10 11 11 9 7 6 6 6 3 6 11 10 8 3 5 7 8 2 10 9 6 5 3 4 5 5 6 9 1 11 10 7 6 7
30 30 32 32 32 32 30 29 24 14 9 7 9 12 9 8 8 10 8 8 10 11 13 10 9 7 8 8 6 6 9 9 8 10 11 8 9 8 7 8 8 8 9 7 6 6 7 7 4 3 3 4 8 9 10 11 9 8 7 7 7 8 7 3 8 9 8 7 5 4 6 1 8 8 5 6 4 3 3 3 4 5 1 9 13 10 8 9
30 31 31 32 34 32 31 29 18 10 7 8 13 12 8 8 9 12 8 7 8 8 11 10 9 10 9 6 6 9 9 8 7 10 13 8 9 10 8 9 9 9 8 8 7 9 10 2 3 3 3 5 9 10 10 8 7 9 9 9 7 8 10 6 8 11 9 9 6 3 5 2 4 5 4 4 2 3 4 3 3 3 1 5 10 9 6 8
30 31 31 33 33 32 33 23 10 7 8 10 13 8 5 7 8 11 8 6 7 7 10 10 8 7 8 7 5 7 8 7 4 7 13 9 11 8 4 5 6 9 6 4 5 9 6 4 3 5 6 7 9 9 9 7 7 9 10 12 9 8 12 10 5 8 5 5 7 4 5 2 3 4 4 1 2 5 4 3 4 3 2 4 7 7 4 5
31 31 32 32 32 34 28 12 8 16 15 11 6 3 5 6 8 10 6 5 6 6 10 10 8 6 8 8 7 7 9 7 4 8 11 9 11 7 7 4 5 7 6 2 6 7 3 3 3 7 8 9 10 9 8 7 7 5 2 6 7 7 9 9 5 5 6 2 4 1 5 3 0 4 5 2 3 5 5 5 5 3 3 5 5 5 5 5
30 30 32 31 30 32 20 8 16 20 11 5 5 6 7 6 8 9 5 5 5 6 9 8 6 7 8 8 9 7 3 4 8 8 9 8 8 7 7 6 6 5 2 4 6 2 4 5 2 6 10 9 8 6 6 5 8 2 6 6 5 7 8 8 8 7 4 3 4 3 5 6 2 3 3 2 3 3 5 6 4 5 4 4 5 3 5 6
30 31 32 29 28 28 17 13 17 15 10 10 10 10 8 7 9 6 5 5 2 5 7 6 5 5 7 8 11 8 1 4 6 6 8 8 7 7 7 7 9 7 2 5 5 1 4 6 1 5 11 7 4 2 6 4 7 4 7 7 6 8 9 9 9 6 3 2 1 2 6 7 1 2 1 2 2 2 6 7 5 6 7 5 4 1 3 7
31 31 31 31 27 22 14 12 13 13 14 14 12 11 10 9 8 4 5 4 4 5 4 6 5 5 8 8 11 10 5 6 5 4 9 9 7 7 7 7 10 10 5 6 9 5 2 5 7 5 8 5 4 5 2 4 6 8 8 7 7 8 9 7 7 5 4 4 4 5 7 5 2 3 1 2 1 2 5 7 5 6 7 7 4 3 3 6
32 31 31 32 25 16 12 13 15 12 12 12 12 11 10 9 5 5 6 3 4 6 5 5 6 9 10 9 9 10 10 9 4 4 7 7 8 8 7 8 8 10 7 6 11 9 1 1 6 6 7 7 7 7 5 2 6 8 7 8 6 6 6 6 6 4 4 4 5 7 7 5 2 2 3 2 4 5 4 5 7 8 7 5 3 3 4 6
33 31 30 31 26 17 12 11 9 8 7 10 11 10 8 6 4 6 5 1 1 5 7 5 8 10 11 11 9 9 10 9 8 6 5 5 7 9 6 7 6 6 7 6 7 9 7 5 4 5 5 6 8 7 3 3 6 6 6 7 4 4 5 5 3 3 5 4 3 6 7 5 4 1 4 6 10 10 8 2 6 11 9 7 5 4 5 6
34 32 29 29 25 18 15 12 8 10 9 10 10 7 6 5 6 7 6 2 2 5 6 7 9 9 12 12 10 11 10 9 9 8 6 7 7 7 7 7 5 5 5 3 3 7 8 5 6 7 6 4 9 5 3 5 5 5 6 5 4 3 4 4 1 2 5 4 1 3 5 4 2 5 9 10 7 7 7 3 6 10 10 9 8 7 5 5
35 33 28 23 19 18 19 16 12 11 10 9 8 5 5 6 7 8 9 5 2 4 3 6 10 8 11 11 9 11 9 7 9 9 7 8 7 8 12 11 6 5 4 2 4 7 6 4 4 5 6 5 6 6 3 3 4 5 5 2 3 4 4 5 3 3 4 3 4 5 2 2 3 8 9 9 6 7 7 5 3 8 10 10 10 9 7 6
35 31 24 16 16 18 15 12 10 10 9 8 6 5 7 8 7 9 10 7 4 5 1 3 9 9 10 10 8 8 8 6 9 9 7 8 7 7 9 11 8 4 6 5 4 4 4 4 3 3 3 4 6 6 3 7 4 5 3 2 5 5 4 4 2 3 4 3 5 5 2 2 4 7 7 9 9 8 7 5 4 4 7 8 9 10 8 8
34 26 18 12 13 14 11 11 12 10 8 7 5 7 9 8 8 9 8 5 4 5 5 4 6 8 9 9 8 8 9 7 8 9 7 5 7 6 4 6 6 3 6 5 2 3 6 2 4 4 2 4 8 2 1 6 6 5 4 6 3 4 3 5 3 3 5 5 3 3 2 5 9 10 10 8 6 7 7 5 5 3 5 5 5 8 8 8
31 22 15 12 12 10 9 10 10 9 9 7 6 8 9 7 8 8 4 5 7 4 5 4 5 7 7 7 7 8 8 6 6 8 7 6 9 8 5 5 6 8 4 4 2 2 4 2 4 3 5 7 8 6 3 6 4 5 4 2 5 7 5 6 4 3 4 5 2 1 2 7 11 8 8 7 5 8 6 3 5 4 6 6 4 6 6 7
27 19 15 13 9 6 7 7 8 9 8 7 7 8 8 9 12 11 5 3 6 7 7 5 5 6 7 6 7 7 7 5 5 4 5 6 6 8 10 8 5 8 2 1 2 3 4 2 4 3 8 6 2 8 9 6 5 5 5 5 7 7 4 4 4 3 3 4 2 1 2 4 8 4 4 7 5 6 5 2 5 5 5 6 5 6 5 5
21 14 14 12 5 5 6 7 8 9 6 6 9 10 10 10 12 12 6 5 6 7 7 8 4 6 8 7 6 10 10 5 4 4 6 6 3 3 8 6 2 3 3 3 2 1 2 4 4 3 7 3 5 5 7 6 6 6 7 7 4 4 2 1 3 3 3 4 2 1 2 3 8 5 4 5 4 6 6 2 3 4 3 3 4 6 7 6
15 9 7 5 6 4 7 8 8 8 6 7 9 7 10 12 13 14 8 5 8 8 6 9 6 5 8 9 7 7 11 7 6 5 5 4 1 1 4 3 4 7 4 4 6 1 2 4 1 2 5 0 4 5 4 3 6 3 6 7 5 3 2 2 3 4 3 4 3 2 2 4 8 6 6 6 4 6 7 3 2 3 3 3 2 3 4 5
11 7 1 8 8 5 8 8 7 7 6 8 8 7 9 11 13 14 6 1 6 8 6 9 9 8 8 8 9 7 6 9 8 5 4 4 5 4 3 3 5 7 7 4 7 3 2 2 1 2 5 4 2 3 2 2 3 3 4 4 5 4 2 3 4 4 5 5 4 5 2 5 6 5 7 6 3 5 6 5 2 1 3 3 2 2 2 3
8 6 2 8 8 8 9 6 6 6 7 8 9 11 10 7 10 9 2 1 5 8 9 10 11 10 10 8 8 8 6 7 7 6 5 4 6 4 4 5 5 5 5 4 5 4 1 2 3 3 4 4 1 0 3 6 7 7 5 4 4 4 3 4 5 3 5 5 4 5 2 5 5 3 5 4 3 5 5 4 2 1 3 3 2 3 3 2
7 4 3 9 8 8 7 6 6 5 7 7 8 12 7 3 8 9 4 4 6 7 9 11 11 11 10 10 8 7 8 6 7 7 5 6 5 2 4 7 6 6 3 3 3 2 4 3 4 3 3 5 1 4 0 5 8 9 7 6 6 5 3 4 4 4 5 5 5 5 2 4 4 4 7 5 3 4 3 2 2 2 1 3 3 4 4 3
5 6 0 8 9 9 7 6 6 6 7 8 10 14 9 3 7 10 8 9 8 6 7 8 11 11 9 10 9 10 10 8 8 7 6 9 6 4 5 5 4 4 3 4 2 3 3 4 5 3 3 7 5 1 1 3 5 7 7 6 5 5 5 5 5 5 5 6 6 5 2 3 5 4 7 7 4 4 4 2 2 1 1 1 3 3 3 4
6 9 4 6 9 8 7 6 6 6 7 9 11 14 11 6 7 9 10 11 8 8 8 8 10 10 10 10 10 12 11 7 7 7 8 9 2 6 2 3 4 2 3 2 2 2 1 2 2 4 3 4 5 3 2 3 3 5 3 2 3 4 7 7 5 5 5 6 7 5 2 4 6 6 8 10 8 7 6 5 3 1 1 1 1 2 2 3
6 7 5 6 9 8 8 7 8 7 7 9 11 13 11 7 8 11 12 12 11 9 9 8 9 10 11 12 11 12 12 9 7 6 8 10 1 3 8 3 5 3 6 1 6 2 1 2 1 4 4 3 3 2 2 2 4 5 1 2 5 5 6 6 4 4 4 5 6 5 3 4 7 9 9 11 9 6 4 6 7 3 3 3 2 2 2 2
5 4 5 4 8 7 7 8 9 9 8 11 9 7 7 7 9 11 12 12 13 12 10 8 9 9 10 13 12 12 12 11 10 7 8 10 5 5 8 5 5 2 5 3 4 5 3 3 3 4 5 5 4 4 5 5 6 7 3 3 6 4 4 5 4 4 4 5 3 2 5 4 2 5 4 7 10 9 6 5 7 5 4 4 3 2 2 2
4 5 6 3 3 5 6 7 8 8 8 8 7 6 7 10 10 9 11 9 9 11 10 9 10 10 10 12 11 10 10 11 12 12 11 12 9 6 5 3 5 7 9 2 9 4 3 6 5 6 8 9 8 7 8 6 6 8 7 5 6 5 5 6 7 5 5 4 3 4 6 6 4 2 2 3 7 8 7 5 3 2 2 3 3 3 3 3
4 5 7 8 4 5 6 4 5 8 9 8 6 7 10 11 11 8 8 7 7 10 8 9 12 13 14 13 10 8 10 11 11 13 12 11 10 7 5 3 6 9 8 9 9 4 4 7 6 7 9 9 9 9 7 5 6 8 7 6 6 5 5 4 5 8 6 4 6 4 3 5 4 3 4 6 5 4 7 8 6 5 4 3 3 4 4 3
6 6 7 9 8 8 10 11 10 11 10 8 6 7 10 11 11 11 7 6 8 8 7 8 11 13 15 15 11 9 10 10 9 9 9 11 12 10 7 8 8 9 8 9 8 6 5 6 6 7 7 7 9 10 9 7 8 9 8 8 8 6 5 4 3 7 8 7 7 7 5 5 3 5 6 5 4 3 3 5 7 5 5 3 3 4 4 4
6 5 7 8 9 9 11 11 10 9 8 6 6 7 10 12 12 12 10 9 10 7 7 9 11 13 14 14 14 15 12 11 9 6 9 12 11 9 8 7 6 5 7 7 7 6 4 2 3 5 7 7 7 10 10 9 9 9 8 9 10 9 9 8 6 5 7 8 8 7 7 5 2 5 5 3 2 0 2 3 2 2 4 4 4 5 3 2
9 9 8 7 7 7 9 9 8 7 6 6 7 8 9 11 12 12 11 11 12 10 7 8 10 12 12 10 12 12 7 9 10 6 8 13 10 6 6 6 7 6 6 6 6 4 4 2 3 5 6 6 6 8 10 9 10 12 10 9 10 9 8 7 7 6 5 6 7 7 6 3 4 5 4 3 2 2 1 1 1 1 1 1 2 4 4 1
11 11 9 6 7 7 7 9 8 7 6 6 8 9 10 11 10 10 10 10 12 11 10 11 9 7 6 7 8 7 8 11 11 7 7 11 11 8 8 10 11 8 6 7 7 4 5 5 5 4 4 5 6 7 8 8 8 9 7 7 9 9 8 7 8 9 8 5 5 6 3 2 2 2 2 3 3 2 4 4 2 2 3 3 3 5 5 2
Wind_Direction
3 2 359 357 355 353 350 345 342 338 335 333 328 322 316 311 308 308 312 315 319 320 325 330 328 328 330 331 333 332 331 326 307 270 239 247 264 286 283 244 255 255 237 223 236 248 245 246 248 252 260 261 253 250 254 238 241 251 126 160 262 44 71 126 176 183 171 185 173 79 64 22 356 16 335 326 353 339 39 58 61 78 87 117 126 133 141 147
7 5 3 1 359 357 354 349 345 339 334 330 324 319 312 306 305 305 308 309 311 313 320 323 323 326 329 331 335 336 337 322 285 269 244 243 259 270 272 264 263 247 217 220 231 236 248 259 257 253 254 265 260 251 264 224 221 280 348 282 6 100 96 106 163 172 168 156 114 100 86 51 19 17 321 323 345 333 33 50 71 95 98 113 126 137 144 151
11 10 8 6 4 2 359 355 348 341 334 329 324 319 313 308 306 305 304 304 306 310 315 318 320 323 327 331 336 341 335 307 274 257 224 232 256 263 260 254 249 229 213 223 246 257 263 279 293 292 270 270 266 249 263 208 190 305 199 304 28 104 111 112 153 164 157 118 108 105 86 59 22 360 322 3 319 308 8 28 53 107 120 125 137 144 149 156
12 11 10 8 6 5 3 360 352 342 335 329 325 319 315 310 307 305 302 302 303 308 313 316 319 321 325 331 337 347 323 291 272 111 119 239 272 253 237 232 226 215 220 238 269 279 275 279 287 287 278 278 271 254 263 251 202 218 211 303 37 102 117 126 142 154 154 120 99 76 72 68 311 291 273 203 208 270 230 271 337 115 133 139 150 151 156 161
10 10 9 7 5 4 3 360 354 347 338 330 323 317 312 307 304 302 300 301 302 307 311 312 318 318 323 331 341 344 308 284 101 101 98 40 331 226 214 210 206 208 227 250 268 273 267 268 271 270 266 268 267 250 249 254 256 280 246 92 53 41 99 129 155 136 134 111 110 111 94 101 242 266 233 219 201 215 200 173 200 242 178 153 156 159 161 164
8 7 6 6 4 2 1 358 356 351 342 332 321 312 306 302 300 300 298 300 301 304 307 310 315 316 323 331 338 321 284 303 97 120 122 98 76 182 196 193 197 207 234 258 266 263 252 256 262 258 257 259 265 262 241 243 345 305 12 96 74 33 83 119 126 116 122 136 178 134 119 123 184 234 231 238 233 197 213 154 167 218 228 167 160 169 168 167
6 5 3 4 2 1 0 358 356 352 345 335 322 312 304 299 297 297 296 297 299 301 303 307 309 314 327 328 320 258 257 261 104 117 124 138 128 141 178 181 193 210 239 257 257 252 249 253 255 258 266 261 266 274 259 276 319 277 273 83 68 52 61 81 72 70 117 160 206 168 147 146 172 236 232 245 259 204 232 189 171 196 236 197 170 176 173 171
4 3 2 1 1 1 358 357 356 351 346 335 325 315 305 300 297 296 295 295 297 299 299 302 306 315 332 331 296 252 248 146 109 116 157 160 139 136 162 177 201 220 241 254 252 250 255 255 254 260 264 269 305 308 289 319 248 252 321 65 58 51 50 50 56 35 32 202 211 151 121 140 170 224 235 232 243 210 246 287 188 182 217 212 179 181 177 175
2 1 0 360 1 360 357 357 354 350 345 336 327 317 309 304 300 297 295 294 294 295 295 297 302 315 328 325 284 276 123 101 113 127 156 159 150 155 177 193 205 223 243 251 252 253 253 250 248 264 280 291 322 322 301 293 248 279 31 66 59 51 60 38 45 48 12 289 268 111 117 222 198 211 223 220 231 207 17 324 246 190 222 224 183 186 185 179
2 0 359 359 359 358 357 355 353 350 343 335 328 319 314 309 307 305 299 296 291 289 290 289 298 317 315 285 274 285 99 111 129 135 154 165 164 175 204 219 212 222 247 249 246 249 248 254 270 300 307 299 297 296 288 276 305 31 70 91 76 61 88 73 54 58 249 240 254 149 183 222 208 214 210 191 210 180 121 251 235 185 277 261 208 197 194 183
2 360 358 358 357 357 356 355 353 348 342 334 327 320 318 317 316 317 310 304 294 286 285 283 291 312 295 271 277 314 110 159 143 141 167 173 181 200 214 228 230 230 247 252 245 249 252 263 293 304 292 309 296 284 283 274 291 1 125 118 105 112 118 120 148 246 272 252 257 340 265 228 193 225 166 152 182 181 177 188 190 191 230 242 242 220 195 180
1 359 358 357 356 355 355 353 351 347 341 332 324 321 321 324 325 325 319 308 298 284 277 277 292 331 297 268 259 308 51 210 170 156 178 184 197 213 221 231 241 239 247 258 248 246 257 273 296 283 272 313 296 281 326 310 295 287 201 130 136 188 167 154 183 215 215 269 250 326 289 238 180 217 164 155 186 190 190 171 155 224 225 212 215 211 184 166
0 359 357 357 355 354 353 351 350 347 340 329 322 320 322 326 328 331 325 289 297 291 274 273 303 328 287 277 219 139 287 201 178 188 192 205 209 208 230 239 240 242 253 271 275 254 255 272 283 277 278 287 280 303 336 303 275 278 261 186 157 230 185 161 180 205 208 231 223 259 300 231 174 198 187 177 196 206 208 177 167 205 216 207 205 197 174 157
0 359 357 356 355 353 351 349 347 346 339 327 319 317 322 327 328 334 325 248 264 282 271 258 265 265 259 270 94 142 244 209 177 205 207 213 217 202 216 234 233 239 250 268 283 277 261 268 266 271 277 272 280 303 307 276 247 260 259 185 204 262 145 143 172 220 227 202 206 242 283 253 182 187 188 186 198 221 226 186 182 192 193 202 192 189 192 160
360 359 356 354 354 352 350 347 345 345 339 326 314 316 320 323 325 328 319 247 245 265 283 261 216 229 259 249 166 152 196 201 195 208 209 207 218 203 184 214 228 234 240 248 274 288 262 264 259 258 262 251 260 276 279 273 245 233 239 199 217 252 84 134 182 225 251 200 208 232 282 288 209 188 187 185 200 228 246 194 188 188 188 197 181 190 203 152
359 358 356 354 353 352 349 346 344 343 338 322 310 315 315 320 319 309 306 264 255 255 273 264 210 213 276 317 145 155 181 204 205 199 201 219 226 197 162 198 220 222 227 235 261 275 246 251 257 253 259 252 247 248 255 267 248 217 226 246 225 201 194 198 186 202 239 233 214 211 261 295 262 171 175 183 200 229 260 227 185 186 191 189 185 195 184 146
359 357 355 354 352 351 349 345 343 341 336 321 310 315 312 310 298 284 289 277 287 287 258 276 255 225 265 333 146 175 189 187 190 191 191 226 244 213 159 197 211 210 220 233 245 254 242 238 243 246 252 258 256 252 253 256 255 213 207 241 243 187 197 212 164 174 214 235 228 211 232 279 284 154 169 184 203 230 266 274 174 178 193 185 192 198 164 147
357 356 354 352 350 350 348 344 342 339 333 318 311 318 313 299 280 276 280 277 296 279 261 263 268 265 242 222 196 182 175 157 173 197 191 213 247 248 200 204 199 200 215 230 230 230 231 221 228 243 234 235 243 248 252 249 270 327 38 265 260 199 202 232 138 156 194 222 238 235 240 254 217 141 142 185 208 240 273 289 187 177 202 194 187 184 141 146
354 353 352 350 348 348 347 344 341 338 329 314 316 322 313 293 271 262 249 239 209 237 268 208 213 265 166 190 196 116 132 140 168 190 201 204 227 227 218 221 209 211 225 220 207 211 220 218 223 241 238 231 229 234 253 264 283 320 348 333 265 270 236 189 149 159 189 233 252 251 263 267 125 116 113 189 205 238 265 274 253 209 219 190 155 174 142 153
351 351 350 348 346 346 344 342 339 336 323 310 323 315 297 283 247 217 209 225 227 243 281 222 200 243 264 157 136 116 120 169 192 203 208 196 211 218 216 231 218 212 235 233 208 198 214 236 226 233 246 240 232 234 250 267 282 300 309 295 248 260 239 169 158 165 179 241 273 272 283 61 111 134 159 170 202 251 280 289 289 264 246 139 144 197 161 147
348 348 347 346 344 342 342 339 336 333 314 305 323 290 296 359 342 347 296 243 233 234 255 250 223 262 296 121 124 157 173 186 200 208 190 183 216 216 189 212 223 215 228 243 239 193 193 243 244 236 243 252 264 272 276 277 283 286 286 289 265 264 260 145 155 163 164 223 272 281 290 106 120 135 140 117 15 345 336 318 311 297 291 106 147 195 152 130
346 347 345 343 342 340 340 336 333 328 303 294 291 258 295 6 355 330 324 281 254 230 234 246 249 263 258 243 249 222 214 205 200 191 172 182 216 214 189 198 220 229 218 231 255 217 199 241 253 243 238 280 310 308 299 290 286 283 274 273 268 263 250 148 154 163 160 213 270 276 294 9 101 104 101 83 37 25 6 339 332 317 288 128 149 182 150 146
345 344 343 342 339 338 336 333 330 317 284 273 267 267 307 350 342 328 310 283 278 238 218 225 236 232 216 224 229 218 228 226 204 175 166 192 213 214 233 234 241 246 218 212 246 255 245 246 280 338 19 332 298 278 269 273 270 264 261 258 252 249 258 193 158 170 181 209 253 277 286 336 102 106 95 79 59 54 36 2 360 337 280 144 149 162 161 163
342 342 342 340 336 336 335 330 320 285 254 250 262 276 319 338 333 334 317 275 275 238 211 207 215 227 216 197 190 204 228 244 226 173 160 198 220 204 229 247 257 264 229 212 236 263 270 286 58 353 326 277 279 270 250 256 259 241 238 251 261 252 255 250 181 178 200 213 213 256 278 256 129 119 92 97 92 61 51 346 8 33 58 137 139 144 162 174
340 339 339 339 336 335 331 325 310 300 292 265 261 271 318 333 337 335 323 277 262 219 198 199 207 220 194 161 170 207 232 252 254 162 154 203 236 220 251 249 240 267 262 203 234 266 284 48 68 280 280 257 266 270 242 239 267 255 230 226 246 265 258 258 201 179 234 226 181 221 284 278 148 106 65 54 2 38 38 2 30 59 134 142 128 123 140 187
337 336 337 338 335 334 332 325 331 328 306 275 278 339 330 328 341 329 308 267 253 187 169 183 185 172 165 168 184 217 238 229 179 147 158 209 241 249 286 259 211 266 313 301 249 265 285 49 14 301 284 249 247 256 229 220 254 269 285 225 241 291 286 288 295 257 285 348 121 259 307 308 39 70 53 11 1 33 45 36 53 92 133 124 108 121 155 175
334 333 334 334 334 337 335 312 324 320 298 308 343 331 321 325 331 320 284 260 245 172 157 167 164 167 173 176 189 211 240 155 148 160 172 198 226 242 262 254 240 248 289 275 252 225 225 219 192 270 268 252 253 253 188 207 261 262 30 343 300 310 299 291 287 271 293 20 50 359 304 290 322 48 37 4 349 28 68 46 59 108 133 117 90 131 166 145
331 330 331 330 330 332 317 293 311 301 292 339 335 305 313 310 304 296 264 271 220 152 159 153 124 173 186 172 200 225 58 134 174 173 170 182 209 237 241 252 282 282 254 269 271 133 228 248 218 240 253 254 283 328 127 185 279 7 27 328 296 290 286 290 288 279 297 324 356 301 268 282 312 111 21 37 344 6 78 63 62 117 149 137 95 116 140 106
328 328 329 327 326 328 318 294 289 281 291 316 315 304 303 291 289 265 258 268 177 157 158 153 140 188 197 177 204 231 229 211 214 157 168 179 199 242 264 273 294 296 283 275 281 284 271 317 337 293 269 296 327 338 69 194 268 4 2 293 271 276 277 281 280 282 300 282 275 248 230 263 301 153 161 71 20 332 91 95 93 125 147 140 129 173 142 101
326 325 327 326 323 328 326 289 273 284 297 301 303 299 287 279 273 242 243 242 183 165 130 152 176 183 196 196 199 217 228 217 180 161 188 186 198 221 262 276 281 291 278 244 263 276 256 6 322 290 283 325 330 316 333 298 297 330 314 277 260 263 270 271 271 288 285 262 288 286 243 241 280 147 152 89 60 23 38 108 135 146 160 162 162 201 172 131
323 323 325 322 315 313 306 275 277 311 301 300 305 286 268 254 239 252 240 195 219 162 136 171 188 173 191 214 204 192 219 222 182 186 205 192 207 210 228 242 232 264 270 235 241 255 233 212 231 235 249 295 288 280 294 288 297 303 284 286 283 266 274 274 293 316 277 270 341 313 288 280 294 98 102 74 65 58 45 50 172 166 174 178 184 228 197 143
322 322 321 313 306 293 270 262 303 320 297 302 301 266 252 230 221 246 238 198 206 185 180 191 184 179 193 217 224 190 204 227 190 190 214 207 213 209 215 227 211 231 256 276 276 255 242 211 176 189 192 243 266 250 188 215 248 253 246 263 273 279 291 274 313 318 265 272 283 269 293 303 333 78 92 87 84 105 123 180 194 172 175 176 177 205 203 150
322 322 317 308 297 280 267 271 292 297 287 287 277 246 240 237 227 232 235 237 179 164 189 182 175 190 197 211 230 198 199 225 189 188 218 220 228 222 219 220 218 251 267 272 262 246 227 165 165 215 170 161 265 259 226 227 235 254 262 273 267 268 278 268 275 285 264 261 241 222 249 277 83 81 99 121 146 156 151 162 157 158 172 176 176 187 192 169
323 322 316 303 286 278 271 266 268 275 276 259 244 232 228 237 243 239 242 248 208 170 198 202 181 188 205 223 236 201 203 218 185 193 215 216 236 249 239 225 204 248 282 269 266 267 248 178 186 297 97 130 241 238 297 320 281 258 258 218 254 275 286 285 296 295 286 266 232 205 225 332 87 107 124 136 156 156 137 135 134 154 169 171 171 169 174 169
326 324 316 294 277 276 261 246 250 257 250 232 230 230 224 231 239 239 251 284 268 204 202 223 200 198 207 221 244 232 218 212 188 204 224 223 242 248 248 235 186 194 280 294 357 315 292 271 138 126 120 254 266 229 36 294 271 294 276 216 253 355 321 283 289 309 300 290 243 167 111 67 93 113 120 122 140 123 100 112 127 145 161 160 161 158 165 163
328 326 309 271 254 251 235 232 238 234 231 228 228 228 226 236 247 252 281 340 333 290 221 207 209 233 223 199 238 238 208 215 214 220 228 228 253 259 260 260 182 173 240 294 330 297 294 315 121 152 220 239 284 318 294 252 262 319 296 260 338 349 324 294 302 324 308 291 281 124 133 127 119 106 105 114 107 94 88 100 112 125 150 151 159 160 166 159
329 325 305 275 244 204 205 217 217 217 226 228 229 237 240 242 253 267 298 351 321 298 270 244 192 226 246 218 224 206 180 221 221 219 256 226 225 246 253 262 191 169 201 300 264 303 312 267 150 250 262 208 225 303 293 291 301 290 297 352 345 315 303 310 302 311 302 280 285 354 291 146 129 104 96 112 102 98 101 88 99 113 138 149 165 163 159 157
319 311 298 277 226 166 199 211 209 216 225 231 236 249 258 256 263 280 331 10 307 285 275 268 200 190 251 262 224 182 173 218 211 193 254 243 174 218 252 272 168 172 295 309 245 177 295 272 165 216 272 168 143 263 268 250 240 263 304 327 312 261 260 304 296 306 298 284 294 154 288 58 95 113 132 120 110 108 103 67 76 97 109 130 156 156 158 167
297 286 281 221 176 171 188 190 210 224 224 228 231 240 254 261 268 279 308 343 302 289 271 272 259 215 246 270 271 201 176 204 241 214 223 231 144 204 255 272 167 173 199 267 275 205 175 279 253 193 273 144 152 235 265 221 202 231 293 287 273 278 322 346 306 298 282 279 295 261 259 52 81 122 142 131 124 110 106 93 39 53 71 82 109 140 151 163
289 280 226 150 155 166 169 182 218 227 224 232 237 239 246 255 259 263 270 263 283 286 268 275 282 271 262 258 273 276 213 213 239 239 210 194 183 191 228 251 223 191 168 200 264 269 174 264 286 195 260 288 252 245 322 312 249 264 287 289 300 308 332 312 282 284 294 294 302 293 296 74 85 129 143 139 128 91 92 105 87 46 85 75 75 119 116 132
288 288 175 149 156 162 167 195 220 221 232 234 242 248 253 283 279 274 349 106 258 278 281 285 285 287 299 283 260 268 256 231 235 252 260 208 176 186 208 217 240 228 176 179 230 255 250 245 272 258 254 276 276 85 325 301 295 303 302 297 292 284 286 282 275 288 298 298 304 294 296 93 93 117 126 123 104 84 83 111 136 135 123 116 113 124 114 108
270 294 147 155 167 174 187 224 223 221 239 236 244 248 243 338 293 277 311 290 256 256 263 271 274 277 292 290 282 285 277 256 234 237 257 248 242 257 184 188 237 263 261 257 249 350 355 282 268 274 271 280 245 120 83 294 298 294 281 281 288 292 296 277 284 310 304 300 299 288 291 107 118 127 123 126 134 118 102 99 85 45 104 142 123 105 99 86
279 312 174 162 180 197 219 244 228 224 237 239 250 250 238 243 270 264 267 266 264 264 250 251 262 265 268 275 289 295 283 271 260 251 243 243 247 51 93 161 219 257 264 259 243 47 6 271 268 279 287 295 298 100 172 268 285 276 258 255 271 313 328 301 304 325 312 299 297 292 316 106 139 159 141 145 179 163 140 135 103 58 311 131 100 101 98 92
307 304 272 177 180 207 232 242 239 233 228 231 243 254 255 259 268 267 265 258 251 255 256 250 251 253 257 266 275 278 273 266 259 256 258 259 185 98 190 187 141 210 264 216 158 59 338 204 266 286 264 263 266 261 245 233 262 276 275 278 290 322 311 292 308 317 288 300 316 311 328 109 151 187 161 155 184 186 156 145 122 77 291 277 95 107 99 97
303 281 251 191 180 207 236 250 273 285 279 268 251 243 246 255 255 249 257 266 260 257 265 258 249 251 252 254 255 262 270 275 263 238 251 271 271 163 237 193 118 291 315 133 161 179 279 147 168 269 269 261 260 272 293 299 300 294 310 323 290 286 292 304 324 297 282 335 346 328 351 97 157 191 174 154 164 163 136 142 145 157 217 213 184 145 123 122
306 278 269 205 181 208 241 251 271 280 290 299 289 253 244 257 255 234 231 250 256 257 270 271 265 266 256 250 249 247 249 256 261 256 255 259 241 220 237 195 168 196 54 65 226 224 238 235 221 245 265 286 305 310 279 251 255 266 263 276 285 305 354 338 302 283 328 346 345 27 15 8 172 196 186 140 135 145 170 168 142 146 186 194 174 151 144 137
284 299 321 331 205 225 229 228 251 259 261 280 299 307 284 268 262 230 202 213 246 250 255 261 261 263 257 251 252 252 247 243 245 251 261 263 255 262 265 205 179 141 118 230 272 265 251 260 247 239 253 262 262 262 262 250 264 296 315 317 304 328 346 311 289 310 350 314 289 53 33 338 324 333 337 63 106 138 157 142 108 127 206 209 174 160 168 159
285 301 338 352 322 267 264 288 313 293 273 264 268 287 286 280 280 258 198 186 235 246 242 245 242 245 255 259 258 255 248 246 245 244 250 255 259 282 301 221 185 155 164 235 253 227 253 271 257 248 262 268 263 260 265 272 283 294 295 272 261 253 238 247 286 304 307 274 279 327 338 298 305 343 12 41 48 59 104 131 183 210 201 210 212 199 189 167
317 306 332 348 330 297 301 317 318 298 283 286 292 283 276 273 274 276 261 229 234 230 218 240 247 240 242 248 254 258 251 248 251 255 263 259 247 247 249 232 206 172 181 237 244 216 234 259 254 262 274 276 278 282 283 275 263 261 269 281 287 275 247 236 267 284 286 278 278 295 301 298 339 12 11 41 59 30 83 162 203 195 168 197 252 254 224 166
330 325 330 334 320 307 307 305 295 284 278 279 280 270 266 269 267 269 270 260 259 248 205 222 254 253 243 240 238 237 244 259 262 280 299 282 259 244 246 252 251 205 186 226 241 205 188 230 264 282 282 268 265 276 281 280 273 271 277 286 294 300 302 305 298 273 280 291 298 313 311 298 29 32 349 351 68 243 250 220 207 136 157 196 240 264 259 176
336 323 314 306 300 306 306 297 288 283 275 261 256 251 248 253 258 265 268 258 258 262 243 237 262 263 256 264 259 246 262 294 289 294 294 282 284 299 293 283 272 239 188 215 245 191 159 232 248 241 265 273 268 272 275 271 263 263 264 257 258 268 280 292 289 270 268 293 299 297 295 308 29 28 337 299 277 263 278 46 62 15 301 261 275 292 305 301
345 321 313 303 289 290 288 285 281 272 266 261 261 264 263 256 245 246 262 259 246 252 269 279 294 307 281 275 296 320 345 334 319 321 299 281 285 294 293 292 284 261 198 206 245 227 198 238 245 221 245 267 255 261 280 281 266 261 266 261 252 256 260 261 264 257 245 246 270 281 296 59 49 327 288 286 294 345 50 59 42 353 346 330 306 305 316 335